Temp
34 33 34 36 37 38 39 38 38 39 38 36 37 36 36 34 35 35 34 33 33 33 32 31 30 29 28 28 27 26 25 25 24 25 25 26 26 25 25 25 24 23 23 23
33 33 36 37 37 37 38 38 38 39 37 37 37 36 37 36 34 35 35 34 33 33 33 31 30 30 29 28 27 26 25 25 24 25 25 26 26 27 26 26 23 23 23 23
34 35 36 36 36 36 37 38 38 38 36 37 37 36 36 37 36 35 35 35 34 34 33 33 31 30 30 29 27 26 25 25 25 25 25 24 24 24 25 25 25 24 23 23
34 36 35 35 35 37 37 39 39 38 37 35 37 36 38 38 36 35 35 35 35 34 34 33 32 31 30 29 28 27 26 25 25 25 26 25 26 27 28 27 26 25 24 23
33 34 34 34 35 37 37 39 38 38 37 37 36 36 37 38 37 37 36 36 35 35 34 33 33 31 30 30 29 27 26 25 25 25 25 26 25 27 27 26 25 24 24 23
34 35 35 35 36 37 38 38 38 38 38 36 37 36 37 38 37 39 38 37 36 36 35 34 33 32 31 30 29 28 27 25 25 25 24 25 26 26 27 26 25 25 25 24
33 34 35 36 35 37 37 36 34 34 35 35 37 37 37 39 40 40 40 39 37 36 36 35 33 32 31 30 29 28 27 26 25 25 25 24 25 25 25 25 25 26 26 25
32 32 34 35 36 36 36 37 35 33 34 35 37 35 37 39 40 40 40 40 38 37 37 35 34 33 31 30 29 29 28 26 26 25 25 25 24 25 25 25 27 26 26 25
33 33 35 35 36 37 36 36 38 37 37 37 37 36 38 39 39 39 40 39 39 38 37 36 35 33 32 31 30 29 28 27 26 26 25 24 24 25 26 26 25 25 25 26
34 32 35 35 36 37 37 37 35 37 34 34 36 37 37 38 39 40 39 39 39 38 37 37 36 34 33 32 31 29 28 28 27 27 26 25 25 25 25 25 24 25 25 24
34 33 34 35 34 35 35 35 36 37 36 35 35 36 39 38 39 40 41 40 40 39 37 37 37 35 33 33 32 30 29 28 28 27 26 26 26 25 25 25 24 23 23 23
34 34 32 33 36 36 37 35 36 35 34 36 36 37 41 40 40 40 41 42 41 40 38 37 37 36 34 33 33 32 31 30 29 28 27 26 26 26 25 24 24 23 22 22
34 33 31 32 35 35 35 36 36 36 37 36 35 36 40 40 39 39 39 40 39 38 37 37 37 36 35 34 33 33 32 31 31 29 28 27 27 26 26 24 24 22 22 21
31 33 32 33 33 35 33 34 35 36 36 35 36 37 38 39 38 39 40 40 39 36 35 35 36 35 34 34 33 32 32 32 32 31 29 28 27 26 26 24 23 21 22 21
32 30 33 33 34 35 35 35 34 34 35 35 36 36 38 38 39 39 40 40 39 36 34 34 34 34 33 32 32 31 32 32 32 31 30 29 27 26 25 24 22 21 20 21
32 30 31 32 34 34 34 35 35 35 35 35 36 36 39 39 39 39 39 40 39 36 35 34 34 33 32 32 31 31 30 31 30 30 30 29 27 25 24 24 21 19 19 21
30 30 30 30 33 34 32 34 35 36 36 36 35 36 38 38 38 39 39 39 39 37 35 34 34 33 33 31 30 30 29 29 29 28 28 28 27 25 23 23 21 19 19 18
29 29 31 31 31 29 34 36 36 35 36 37 36 37 37 38 38 39 40 40 40 37 36 35 35 34 32 32 31 30 29 28 28 27 27 26 25 25 23 21 20 20 19 17
30 29 30 30 30 32 33 33 33 34 34 37 36 37 37 38 38 37 35 36 37 37 36 35 35 33 31 31 31 29 29 28 27 27 26 26 25 24 23 20 19 19 19 17
30 29 30 29 29 29 29 28 28 29 31 36 37 36 37 37 35 37 34 34 35 35 34 33 33 31 30 30 30 29 29 28 27 27 26 26 25 24 23 21 20 19 18 17
28 29 30 29 29 30 26 26 29 28 31 29 37 37 37 36 35 32 31 32 33 33 32 31 30 30 29 29 29 29 29 29 28 28 26 25 24 23 22 21 19 18 18 18
27 28 29 30 27 28 24 27 27 26 28 30 32 34 34 32 30 30 30 30 30 30 31 30 30 29 28 28 28 29 28 28 27 26 26 24 22 22 20 19 18 18 18 19
28 30 29 28 28 23 24 22 24 26 28 29 30 31 30 30 29 29 29 30 30 31 31 30 29 27 27 28 28 28 25 25 25 24 24 21 20 20 19 18 17 17 18 19
27 28 28 25 22 23 23 23 24 25 26 28 29 30 30 29 29 29 29 29 29 29 29 29 28 27 26 25 25 24 23 23 23 21 20 19 18 18 18 17 17 18 18 19
22 24 26 23 21 22 21 22 24 24 25 25 26 26 26 27 27 26 26 27 27 27 27 27 27 26 25 24 23 22 22 22 22 20 20 20 19 19 19 18 19 19 19 19
15 19 26 25 21 22 18 19 21 23 24 24 24 24 25 25 24 24 24 24 25 25 25 25 24 24 24 23 22 22 22 22 22 21 22 23 22 21 20 19 17 17 18 18
Height
730 744 743 732 724 721 721 731 737 727 726 743 745 749 748 752 753 755 760 765 768 771 775 782 788 793 798 803 807 812 815 818 822 825 827 829 830 833 835 836 837 838 838 839
735 740 723 719 720 725 723 731 733 722 729 738 738 746 740 742 749 748 753 757 761 764 768 776 782 786 791 797 802 807 811 815 818 821 823 825 826 827 829 831 833 834 836 837
729 722 715 721 724 731 726 728 727 730 735 734 736 749 742 733 737 741 743 745 750 755 760 767 774 779 784 790 796 801 805 810 814 816 820 823 825 827 828 828 829 831 833 835
721 706 717 726 730 720 733 711 716 722 740 760 735 764 733 724 733 736 739 740 741 745 752 757 766 772 777 782 789 794 800 804 808 812 814 817 818 819 820 823 825 828 831 833
717 714 721 726 720 711 721 703 718 720 731 737 739 756 733 720 730 726 724 727 730 734 742 749 756 764 770 776 782 787 793 798 802 806 810 813 816 816 818 821 823 826 828 831
704 696 703 709 705 705 705 713 714 718 726 751 731 743 738 723 723 712 709 714 721 727 733 741 749 757 763 769 775 780 786 791 797 801 804 808 811 814 814 818 820 823 824 827
711 704 698 694 711 703 710 723 753 762 753 751 720 734 729 704 697 699 696 700 709 716 725 732 740 747 755 760 766 773 779 784 789 793 798 802 806 810 813 815 818 818 820 822
720 727 701 691 696 706 710 711 731 764 754 744 719 741 720 697 690 686 686 686 696 706 711 719 728 737 745 752 758 765 770 776 781 786 791 796 801 805 808 811 812 815 817 819
703 709 683 685 687 686 703 712 694 714 709 726 715 717 701 690 692 687 685 686 689 694 699 709 718 727 735 743 749 755 761 767 774 780 785 789 795 799 802 806 809 812 814 816
685 710 683 682 684 680 682 686 720 704 737 746 725 717 716 701 693 681 685 683 681 685 691 696 705 715 724 733 740 748 755 761 768 773 778 783 788 792 796 800 802 803 807 809
676 694 689 684 691 690 692 696 694 694 703 725 734 716 681 691 684 680 672 673 671 676 683 687 693 705 716 724 732 738 747 754 760 765 769 775 780 784 789 791 794 799 802 806
671 682 701 689 666 667 671 687 686 704 717 698 705 700 658 664 671 669 666 659 659 664 672 680 686 697 706 714 721 728 736 743 748 754 760 767 772 776 780 784 789 792 796 795
663 681 701 697 679 671 679 673 676 679 683 691 712 704 659 661 668 665 667 661 661 666 668 674 679 687 696 703 711 717 725 731 739 746 753 759 763 768 771 776 782 787 791 796
665 668 681 686 680 666 684 680 672 675 683 690 682 682 669 664 668 662 657 656 658 665 668 672 675 681 688 695 701 709 716 724 730 737 743 749 754 759 766 772 775 778 782 787
667 682 667 665 658 655 660 666 672 675 671 680 675 674 666 660 660 658 651 648 654 663 665 668 670 674 682 690 696 704 711 716 722 728 734 741 751 757 762 765 767 770 774 779
659 678 668 669 657 657 662 652 656 658 662 663 667 665 644 644 648 651 649 646 649 656 658 661 666 671 677 683 691 698 704 711 718 723 729 737 743 749 753 756 759 765 767 769
663 668 672 680 654 652 668 652 644 641 642 650 662 650 644 643 643 642 641 640 642 644 648 653 657 661 670 678 686 692 700 706 711 718 722 729 735 740 744 749 754 760 760 762
663 667 662 667 659 690 641 618 624 631 628 628 633 635 632 632 630 629 627 627 628 635 639 647 651 658 667 674 682 688 694 700 705 710 716 722 728 734 738 740 745 751 754 757
648 660 664 670 669 646 642 636 636 637 635 616 623 626 624 620 623 631 630 627 626 627 632 641 645 654 663 669 675 682 689 695 700 704 710 715 719 724 729 732 737 741 747 753
640 650 656 660 670 671 657 652 646 650 651 611 610 618 618 620 644 627 622 625 626 626 632 641 644 654 660 664 671 678 684 690 696 699 705 710 716 721 725 728 734 738 741 745
649 646 649 653 663 653 656 653 638 671 645 624 599 604 610 620 623 624 623 624 627 629 633 641 645 651 658 663 670 677 683 688 692 696 700 705 710 716 720 727 733 739 742 747
647 651 645 645 665 665 655 645 657 657 636 621 609 604 609 618 627 627 628 630 632 635 639 645 648 652 659 665 672 677 683 687 691 695 699 703 709 714 718 722 730 736 741 743
636 626 638 649 644 659 656 663 656 650 642 625 618 617 622 626 628 630 633 638 639 638 640 648 653 659 666 668 671 677 682 686 689 694 698 704 709 713 714 721 729 734 740 742
628 623 639 654 664 661 658 659 655 655 654 641 634 631 630 636 635 634 638 645 642 644 648 653 659 664 668 671 673 678 683 687 690 695 699 706 710 714 716 724 730 734 739 741
649 645 642 655 664 662 661 662 664 665 661 658 653 652 647 645 646 649 647 652 651 656 660 662 663 666 670 672 674 678 683 686 692 698 701 705 710 713 718 723 728 733 736 739
679 666 642 649 657 656 671 671 680 670 664 663 661 661 659 658 660 662 653 667 667 663 670 672 674 673 674 675 679 682 686 690 695 700 701 704 707 712 719 726 732 735 737 739
Wind_Speed
19 18 21 23 22 20 17 16 14 15 14 16 15 13 11 10 15 16 16 18 19 20 21 25 25 25 23 22 21 21 21 21 18 17 17 16 15 14 13 14 12 11 10 10
16 23 22 22 21 23 20 18 17 13 9 15 13 15 13 14 17 18 19 19 19 19 19 23 26 26 26 24 22 22 22 22 20 18 17 15 13 13 13 11 11 11 11 11
19 18 21 20 21 24 23 21 18 15 11 15 11 15 17 15 16 17 19 20 21 21 21 21 25 28 27 26 25 24 23 22 21 21 18 14 12 11 9 11 10 10 10 9
21 20 23 19 24 23 24 23 19 16 14 13 16 13 14 17 17 20 21 21 22 23 21 20 24 28 28 28 26 25 24 23 22 21 21 19 15 13 11 9 8 8 9 9
20 22 22 23 24 25 24 21 19 19 17 19 15 11 13 4 14 20 24 24 24 23 23 22 22 29 30 28 27 26 25 24 23 22 22 20 19 14 12 9 7 9 9 10
23 15 20 23 22 23 21 19 16 17 16 18 22 15 15 12 15 17 18 23 24 23 23 22 27 28 30 29 28 27 26 25 24 24 23 22 17 17 13 12 12 12 12 12
20 22 15 18 23 24 22 18 12 15 15 15 18 20 16 12 10 15 12 19 24 23 23 22 23 25 30 32 31 29 27 27 26 26 25 24 23 21 19 16 15 12 13 13
18 20 26 16 27 25 27 26 15 24 16 14 21 16 18 19 18 21 11 12 20 24 24 24 24 29 32 32 33 31 29 29 28 28 27 25 25 23 21 19 16 16 14 13
19 24 23 22 19 26 26 26 25 24 20 17 17 14 23 16 16 15 14 14 18 23 25 25 25 31 32 33 34 33 31 30 30 28 27 27 25 24 22 19 18 16 14 13
13 13 24 23 20 26 27 22 24 20 25 22 20 20 12 19 17 17 13 16 18 21 24 26 25 32 34 35 35 34 33 31 29 29 28 27 26 25 25 23 22 21 18 19
21 12 14 22 26 25 20 19 21 23 22 19 18 19 16 15 14 13 12 14 16 18 22 24 25 33 34 34 34 34 33 32 31 30 31 29 28 28 27 27 27 23 20 20
22 14 16 19 22 26 24 25 24 17 26 19 22 18 19 18 18 21 19 11 10 14 19 21 22 28 33 35 34 34 33 33 35 34 32 31 29 30 30 30 26 25 24 22
20 19 14 19 18 18 22 28 28 26 22 26 20 19 18 12 12 12 13 13 8 10 14 18 20 22 28 34 34 35 35 35 34 33 32 32 32 32 32 31 27 28 22 21
7 18 24 17 22 21 25 24 26 27 21 22 27 21 21 22 18 16 14 14 12 10 12 16 18 21 26 30 31 32 34 33 34 32 32 32 33 33 30 27 28 28 32 26
16 15 15 21 21 19 23 28 29 30 29 28 22 29 23 23 18 19 19 18 11 12 14 18 20 18 18 24 28 29 30 30 30 30 31 30 25 25 26 27 28 29 31 34
15 14 16 22 21 22 27 27 29 30 30 29 30 33 24 24 24 23 22 19 16 16 16 19 19 19 20 26 27 26 27 27 25 25 26 24 23 23 27 28 29 28 33 37
16 14 12 18 22 17 21 27 29 28 32 28 28 26 26 30 23 25 24 21 17 18 18 20 22 21 19 25 26 25 23 23 24 23 23 23 23 23 25 28 28 27 32 35
11 15 13 14 6 16 17 19 26 28 27 31 27 23 23 25 21 22 23 20 17 17 15 16 16 16 21 21 22 22 23 23 23 23 22 21 22 22 24 28 31 29 30 32
18 14 13 14 15 12 14 13 9 16 27 26 26 24 24 24 20 17 12 11 13 14 13 14 18 19 22 23 24 23 22 22 22 22 21 22 24 25 25 28 30 29 29 30
18 17 14 8 15 18 3 10 14 15 15 25 24 25 23 20 12 17 10 9 11 11 12 13 20 22 23 23 24 23 22 21 20 20 19 19 19 20 22 25 26 28 30 28
15 16 17 11 11 8 9 15 7 9 6 24 26 25 23 21 7 5 8 8 8 10 13 18 22 20 21 22 22 19 19 18 18 17 16 17 18 18 18 19 20 23 25 25
18 17 13 11 11 14 10 3 1 11 18 13 10 14 15 12 14 14 13 14 16 17 18 20 20 22 21 19 19 17 15 14 13 13 14 15 14 13 15 21 22 24 24 23
15 14 8 10 2 5 7 2 4 11 10 8 6 12 16 20 20 19 18 17 17 18 17 22 20 20 16 15 15 14 13 13 13 13 13 12 15 14 16 21 21 21 21 19
3 5 6 10 6 8 13 10 10 6 5 11 12 14 17 17 18 19 17 14 15 15 14 18 17 15 14 13 13 13 11 10 10 12 14 14 15 14 15 14 16 17 17 19
6 6 9 8 10 12 14 12 8 8 11 14 17 16 17 17 19 16 17 15 15 13 14 14 14 14 13 13 14 13 12 12 13 13 14 15 15 14 14 11 10 12 13 11
7 5 2 6 11 9 9 9 1 8 13 14 17 17 18 17 17 15 17 13 12 12 12 11 11 11 12 13 13 14 13 13 14 14 13 13 14 13 12 10 8 6 7 12
Wind_Direction
190 201 208 206 214 228 224 208 209 209 160 202 208 219 177 194 211 209 198 200 201 206 199 199 201 201 201 203 204 206 208 211 210 212 213 213 223 233 237 240 241 242 239 236
182 214 211 223 216 228 239 223 219 184 167 217 209 229 227 200 213 213 208 207 209 208 200 200 201 204 204 203 207 208 212 213 212 215 216 226 227 233 233 235 233 233 231 227
207 206 217 213 219 223 224 229 219 204 185 226 245 231 234 218 217 215 218 213 210 211 205 200 203 204 204 205 206 210 212 214 213 217 216 217 226 237 232 235 235 233 228 229
220 219 205 208 225 217 225 223 234 213 192 222 205 248 229 218 213 219 212 214 214 211 209 207 204 207 207 208 208 211 213 213 215 214 219 215 222 227 222 232 233 231 227 219
206 210 198 216 215 217 230 222 225 244 211 239 179 240 260 208 228 221 218 211 214 211 208 208 205 206 210 206 206 210 212 212 212 212 216 215 224 224 226 219 215 216 208 211
229 199 220 221 217 223 225 249 221 233 231 230 233 212 237 217 232 241 224 213 210 209 208 207 207 206 207 206 207 209 210 211 211 210 212 214 217 222 218 210 212 212 211 209
215 204 208 216 214 211 214 209 204 218 224 238 211 230 232 255 221 245 261 207 208 205 204 202 203 201 204 204 205 207 207 210 209 210 212 213 215 215 220 219 218 218 213 209
208 212 210 193 216 202 213 213 218 214 220 219 231 234 232 239 259 259 233 233 199 203 202 202 200 202 201 203 204 206 205 208 208 209 212 213 214 216 221 219 221 216 218 212
208 227 198 213 216 219 202 219 227 242 225 242 224 212 242 248 254 245 236 216 199 204 205 198 199 202 201 202 203 205 205 206 208 210 210 212 211 213 216 219 215 217 219 217
221 235 224 197 212 218 229 209 220 231 238 223 237 237 221 220 229 238 214 215 209 204 205 203 200 199 199 202 205 207 209 210 208 209 211 211 210 210 211 211 211 210 211 206
228 218 206 209 208 208 207 229 218 234 227 243 234 234 217 240 257 267 232 219 219 204 204 207 203 201 199 202 204 206 207 209 209 208 210 210 210 210 210 213 212 208 203 206
214 214 233 215 213 219 211 214 215 223 226 237 248 245 223 221 232 241 249 252 225 215 206 206 206 199 199 202 203 205 205 207 209 209 207 209 209 209 212 213 212 204 208 189
209 226 214 231 216 202 231 224 221 227 238 229 226 233 247 194 227 250 243 260 249 234 206 203 201 196 204 202 203 207 205 208 209 210 209 211 211 211 213 215 209 204 198 197
306 228 219 222 222 218 211 224 237 233 232 234 243 242 227 224 233 249 252 257 257 224 209 202 202 196 202 203 201 206 209 210 212 210 212 212 213 213 216 215 205 200 202 196
218 238 232 234 256 243 232 219 219 234 238 240 240 236 232 243 241 245 260 261 244 227 203 202 200 193 195 199 203 205 209 209 214 213 217 217 217 218 220 216 206 195 191 195
218 242 248 243 241 247 252 236 231 228 234 240 241 248 247 228 237 249 249 257 245 231 208 204 200 195 196 198 199 199 204 208 208 218 219 221 213 212 217 214 205 195 194 194
231 223 219 240 232 244 242 244 248 237 225 232 234 236 235 243 248 236 239 241 239 229 207 199 197 198 195 194 192 193 194 194 201 207 212 213 213 212 210 210 208 201 200 193
223 228 246 246 217 238 253 245 237 242 237 227 234 241 227 233 228 233 238 250 244 231 210 202 197 191 188 187 184 185 184 189 195 198 205 204 205 210 203 200 205 210 206 199
226 233 229 243 233 252 281 356 318 271 242 236 231 232 235 223 223 251 236 235 240 228 205 200 187 175 170 178 177 176 180 183 188 193 197 198 199 202 201 199 200 204 200 199
223 216 239 187 242 234 107 8 342 314 254 238 234 217 223 231 224 238 176 209 211 204 181 185 171 170 172 171 166 168 172 176 183 187 190 192 196 201 203 204 202 200 194 193
182 199 207 193 227 229 23 335 41 238 282 316 227 230 227 233 240 85 143 137 157 153 147 156 152 155 153 152 154 162 166 174 176 176 179 183 191 197 199 196 196 191 191 197
197 207 219 218 226 236 9 343 160 332 305 296 280 226 213 141 137 118 116 121 125 127 126 129 124 125 132 138 149 154 163 162 165 171 174 175 175 177 179 179 180 187 193 198
198 208 178 234 203 88 64 12 296 296 344 35 101 125 137 135 125 116 109 107 107 106 108 107 106 107 111 127 139 144 149 156 158 158 159 154 156 156 153 164 176 182 189 200
165 128 179 176 104 84 94 69 54 50 48 46 78 105 108 112 111 108 105 101 92 87 94 104 108 109 106 106 107 119 131 132 135 137 134 143 143 145 151 167 180 188 198 205
11 308 160 98 125 106 64 62 58 83 87 83 79 78 72 75 80 85 82 75 78 78 72 81 91 92 90 94 98 108 119 130 138 146 143 140 138 143 146 141 168 186 195 221
337 343 206 172 154 113 88 66 39 86 80 77 81 70 63 69 69 57 70 55 58 67 61 74 86 102 105 108 109 115 124 131 132 135 141 137 134 137 143 153 144 155 174 191